Flag for Germany Weather past 2 weeks in Heilbronn, Baden-Württemberg, Germany

Now
52 °F

Overcast.


Feels Like: 52 °F
Forecast: 47 / 62 °F
Wind: No wind

Location: Oehringen

Current Time: Oct 25, 2014 at 10:41:53 PM

Latest Report: Oct 25, 2014 at 10:00 PM


Visibility: 6 mi

Pressure: 30.23 "Hg

Humidity: 89%

Dew point: 49 °F

Location of HeilbronnLocation

Historic Weather in Heilbronn — Graph

°F

Heilbronn temperature yesterday

Maximum temperature yesterday: 58 °F (at 4:00 PM)
Minimum temperature yesterday: 37 °F (at 8:00 AM)
Average temperature yesterday: 46 °F

Past Weeks' High & Low Weather Summary

 TemperatureHumidityPressure
High73 °F (Oct 19, 2:00 PM)99% (Oct 11, 8:00 AM)30.29 "Hg (Oct 11, 8:00 AM)
Low37 °F (Oct 24, 8:00 AM)54% (Oct 14, 2:00 PM)29.62 "Hg (Oct 21, 7:00 PM)
Average55 °F86%29.99 "Hg
* Reported Oct 10 9:00 PM — Oct 25 9:00 PM, Heilbronn, Weather by CustomWeather, © 2014

Note: Actual official high and low records may vary slightly from our data, if they occured in-between our weather recording intervals... More about our weather records

Advertising

Heilbronn weather history for previous 24 hours

 ConditionsComfort  
Time TempWeatherWind HumidityBarometerVisibility
9:00 PM
Oct 25
53 °FOvercast.1 mph86%30.22 "Hg8 mi
8:00 PM53 °FOvercast.1 mph86%30.21 "Hg7 mi
7:00 PM53 °FOvercast.1 mph82%30.19 "Hg6 mi
6:00 PM55 °FOvercast.1 mph77%30.17 "Hg7 mi
5:00 PM56 °FOvercast.1 mph71%30.16 "Hg7 mi
4:00 PM56 °FOvercast.1 mph66%30.16 "Hg11 mi
3:00 PM55 °FOvercast.2 mph68%30.16 "Hg9 mi
2:00 PM54 °FOvercast.2 mph75%30.16 "Hg7 mi
1:00 PM53 °FOvercast.1 mph75%30.17 "Hg4 mi
12:00 PM51 °FOvercast.1 mph82%30.17 "Hg6 mi
11:00 AM49 °FLight rain. Overcast.1 mph86%30.17 "Hg3 mi
10:00 AM48 °FLight rain. Overcast.1 mph90%30.15 "Hg3 mi
9:00 AM46 °FOvercast.1 mph93%30.14 "Hg4 mi
8:00 AM45 °FFog.2 mph93%30.14 "Hg3 mi
7:00 AM46 °FFog.1 mph93%30.13 "Hg4 mi
6:00 AM46 °FOvercast.1 mph93%30.13 "Hg4 mi
5:00 AM46 °FLight rain. Overcast.2 mph92%30.13 "Hg4 mi
4:00 AM46 °FOvercast.No wind90%30.13 "Hg5 mi
3:00 AM46 °FOvercast.1 mph89%30.13 "Hg6 mi
2:00 AM45 °FOvercast.2 mph89%30.14 "Hg6 mi
1:00 AM45 °FOvercast.2 mph89%30.15 "Hg7 mi
12:00 AM46 °FOvercast.1 mph87%30.15 "Hg7 mi
11:00 PM
Oct 24
48 °FOvercast.2 mph81%30.16 "Hg8 mi
10:00 PM47 °FOvercast.2 mph82%30.16 "Hg9 mi
Weather by CustomWeather, © 2014

See weather overviewHow to use our weather pages